カタログに戻る

THORAD AGENA D DEB

運用中LEO
NORAD 4951·DEBRIS·🇺🇸 United States

打ち上げ Apr 8, 1970 から Vandenberg Space Force Base

Loading…

次のパス (今後24時間)

TLE

最新Source: Space-Track

元期: Sep 14, 2026, 23:01 UTC

1 04951U 70025GM  26257.95959330  .00000107  00000-0  20426-3 0  9993
2 04951 100.1894 257.5924 0016791 261.6886 126.5758 13.61281792795059

AllMySatでTHORAD AGENA D DEBをリアルタイム追跡

Download on the App Store